Powrót do katalogu

COSMOS 1348 DEB

LostHEO
NORAD 40328·DEBRIS·🇷🇺 Russia

Wystrzelony Apr 7, 1982 z Plesetsk Cosmodrome

Loading…

Następne Przeloty (najbliższe 24 godziny)

TLE

NieaktualneSource: Space-Track

Epoka: Apr 18, 2019, 05:00 UTC

1 40328U 82029P   19108.20847354  .00000080  00000-0  00000+0 0  9997
2 40328  70.5469 211.1596 4559105  77.3701 328.4720  2.02636178 39967

Śledź COSMOS 1348 DEB w czasie rzeczywistym z AllMySat

Download on the App Store